Regional Weather Roundup
Issued by NWS

Home | Current Version | Previous Version | Graphics & Text | Print | Product List | Glossary On
Versions: 1 2 3 4 5 6 7 8 9 10 11 12 13 14 15 16 17 18 19 20 21 22 23 24 25 26 27 28 29 30 31 32 33 34 35 36 37 38 39 40 41 42 43 44 45 46 47 48 49 50
000
ASUS43 KDTX 220010
RWRMI
MICHIGAN HOURLY REGIONAL WEATHER ROUNDUP
NATIONAL WEATHER SERVICE DETROIT/PONTIAC MI
800 PM EDT THU SEP 21 2017

NOTE: "FAIR" INDICATES FEW OR NO CLOUDS BELOW 12,000 FEET WITH NO
SIGNIFICANT WEATHER AND/OR OBSTRUCTION TO VISIBILITY.

MIZ047>049-052>055-059>063-066>070-074>076-081>083-220100-
SOUTHEAST LOWER MICHIGAN

CITY           SKY/WX    TMP DP  RH WIND       PRES   REMARKS
ADRIAN         CLOUDY    83  68  60 N5        30.07R
6HR MIN TEMP:  83; 6HR MAX TEMP:  91;

ALMA           PTCLDY    77  64  63 SE5       30.07R
ANN ARBOR      CLOUDY    80  64  58 W9        30.08R
BAD AXE        CLOUDY    77  69  76 S5        30.06R
CARO           PTCLDY    76  64  66 SE5       30.05R
DETROIT CITY   MOCLDY    78  68  71 SE9       30.06R
6HR MIN TEMP:  78; 6HR MAX TEMP:  88;

DETROIT        CLOUDY    78  70  76 W9        30.09R
6HR MIN TEMP:  77; 6HR MAX TEMP:  89;

FLINT          CLOUDY    70  62  76 S13       30.08R
6HR MIN TEMP:  67; 6HR MAX TEMP:  93; 6HR PCP:  0.02;

GROSSE ILE     CLOUDY    75  68  78 CALM      30.05R
6HR MIN TEMP:  75; 6HR MAX TEMP:  83;

HILLSDALE      CLOUDY    77  68  73 NE5       30.08R
HOWELL         LGT RAIN  71  64  80 NW10      30.09F
6HR MIN TEMP:  71; 6HR MAX TEMP:  92; 6HR PCP:  0.05;


CITY           SKY/WX    TMP DP  RH WIND       PRES   REMARKS
JACKSON        CLOUDY    76  64  66 NE7       30.08F
6HR MIN TEMP:  76; 6HR MAX TEMP:  93;

LAMBERTVILLE   CLOUDY    79  72  79 CALM      30.06R
6HR MIN TEMP:  79; 6HR MAX TEMP:  92;

LANSING        LGT RAIN  71  66  84 E12       30.09R
6HR MIN TEMP:  68; 6HR MAX TEMP:  95; 6HR PCP:  0.44;

LAPEER         FAIR      78  69  74 CALM      30.07R
6HR MIN TEMP:  78; 6HR MAX TEMP:  92;

MASON          CLOUDY    71  65  81 NE3       30.08F
MONROE         CLOUDY    76  68  75 SE3       30.06R
6HR MIN TEMP:  76; 6HR MAX TEMP:  88;

MT. CLEMENS    CLOUDY    75  69  80 SE12      30.06R
6HR MIN TEMP:  75; 6HR MAX TEMP:  84;

PONTIAC        CLOUDY    77  63  61 NE3       30.07R
6HR MIN TEMP:  77; 6HR MAX TEMP:  91;

PORT HOPE        N/A     77  68  73 SE5       30.03R
6HR MIN TEMP:  74; 6HR MAX TEMP:  83;

PORT HURON     CLOUDY    77  66  69 SE3       30.08R
TRI CITIES     CLOUDY    77  64  64 SW8       30.05S
6HR MIN TEMP:  77; 6HR MAX TEMP:  93;

MIDLAND        FAIR      78  63  58 SW9       30.04S
6HR MIN TEMP:  78; 6HR MAX TEMP:  94;

TROY           CLOUDY    82  71  67 SE5       30.09R
SAGINAW HB     CLOUDY    77  63  61 SW9       30.04R
$$
MIZ043>046-050>051-056>058-064>065-071>073-077>080-220100-
SOUTHWEST LOWER MICHIGAN

CITY           SKY/WX    TMP DP  RH WIND       PRES   REMARKS
BATTLE CREEK   CLOUDY    76  68  76 E9        30.08R
6HR MIN TEMP:  72; 6HR MAX TEMP:  93;

BENTON HARBOR  CLEAR     78  72  81 E3        30.02R
6HR MIN TEMP:  78; 6HR MAX TEMP:  86;

BIG RAPIDS     CLOUDY    76  65  69 CALM      30.05R
6HR MIN TEMP:  75; 6HR MAX TEMP:  87;

COLDWATER      CLOUDY    79  68  69 E3        30.06F
6HR MIN TEMP:  79; 6HR MAX TEMP:  90;

FREMONT        FAIR      76  69  79 CALM      30.03R
HOLLAND        CLEAR     79  71  76 CALM      30.03R
6HR MIN TEMP:  79; 6HR MAX TEMP:  90;

GRAND RAPIDS   MOCLDY    80  67  64 S9        30.05R
6HR MIN TEMP:  80; 6HR MAX TEMP:  95;

IONIA          LGT RAIN  72  66  80 SE6       30.06F
6HR MIN TEMP:  72; 6HR MAX TEMP:  95;

KALAMAZOO      PTCLDY    76  68  76 CALM      30.05R
6HR MIN TEMP:  76; 6HR MAX TEMP:  92; 6HR PCP:  0.06;

LUDINGTON      PTCLDY    68  67  94 CALM      30.01S FOG
6HR MIN TEMP:  68; 6HR MAX TEMP:  77;

MARSHALL       CLOUDY    75  69  81 CALM      30.09R
6HR MIN TEMP:  75; 6HR MAX TEMP:  91;

MOUNT PLEASANT CLOUDY    82  63  51 S5        30.05R
6HR MIN TEMP:  82; 6HR MAX TEMP:  92;

MUSKEGON       MOCLDY    80  68  66 SE3       30.03R
6HR MIN TEMP:  80; 6HR MAX TEMP:  86;

SOUTH HAVEN    CLEAR     79  73  81 CALM      30.02S
$$
MIZ016>042-220100-
NORTHERN LOWER MICHIGAN

CITY           SKY/WX    TMP DP  RH WIND       PRES   REMARKS
ALPENA         PTCLDY    71  68  90 E3        30.04R
6HR MIN TEMP:  71; 6HR MAX TEMP:  86; 6HR PCP:  0.01;

BEAVER ISLAND  CLEAR     71  67  89 E5        30.03R
BELLAIRE       CLEAR     72  68  87 CALM      30.03R
6HR MIN TEMP:  72; 6HR MAX TEMP:  86;

CADILLAC       CLEAR     76  65  68 CALM      30.06S
CHARLEVOIX     PTCLDY    73  67  81 CALM      30.07R
FRANKFORT      CLEAR     71  69  93 CALM      30.03R
GAYLORD        PTCLDY    76  68  76 NE6       30.06R
6HR MIN TEMP:  76; 6HR MAX TEMP:  87;

GRAYLING       PTCLDY    76  68  76 W5        30.06R
6HR MIN TEMP:  76; 6HR MAX TEMP:  88;

HARBOR SPRINGS MOCLDY    74  70  88 E6        30.03S
HOUGHTON LAKE  MOCLDY    77  68  73 S5        30.06R
6HR MIN TEMP:  77; 6HR MAX TEMP:  88;

MANISTEE       CLOUDY    72  69  90 CALM      30.02R
OSCODA         CLEAR     76  67  75 S6        30.03R
6HR MIN TEMP:  74; 6HR MAX TEMP:  87;

PELLSTON       PTCLDY    72  68  87 SE3       30.04R
6HR MIN TEMP:  72; 6HR MAX TEMP:  85;

ROGERS CITY    CLEAR     67  65  94 CALM      30.05S FOG
TRAVERSE CITY  MOCLDY    73  66  78 CALM      30.02R
6HR MIN TEMP:  73; 6HR MAX TEMP:  87;

$$
MIZ007>008-015-220100-
EASTERN UPPER MICHIGAN

CITY           SKY/WX    TMP DP  RH WIND       PRES   REMARKS
KINROSS        CLEAR     71  68  90 SE7       30.05R
6HR MIN TEMP:  71; 6HR MAX TEMP:  77;

MACKINAC ISLAN PTCLDY    71  67  88 SE7       30.04R
6HR MIN TEMP:  71; 6HR MAX TEMP:  76;

NEWBERRY       MOCLDY    69  69  97 E3        30.03R
6HR MIN TEMP:  69; 6HR MAX TEMP:  77;

S. S. MARIE    CLOUDY    73  67  81 SE6       30.04R
6HR MIN TEMP:  73; 6HR MAX TEMP:  79;

MUNISING         N/A     60  60 100 N3        30.01S
6HR MIN TEMP:  60; 6HR MAX TEMP:  65;

$$
MIZ004>006-011>014-085-220100-
CENTRAL UPPER MICHIGAN

CITY           SKY/WX    TMP DP  RH WIND       PRES   REMARKS
MANISTIQUE     CLEAR     66  61  81 SE3       30.01R
6HR MIN TEMP:  66; 6HR MAX TEMP:  78;

ESCANABA       CLEAR     68  67  96 CALM      30.00S
6HR MIN TEMP:  68; 6HR MAX TEMP:  80;

MENOMINEE      MOCLDY    70  66  87 E5        30.00S
6HR MIN TEMP:  70; 6HR MAX TEMP:  77;

SAWYER-GWINN   CLEAR     63  57  82 NE5       30.03R
$$
MIZ001>003-009>011-084-220100-
WESTERN UPPER MICHIGAN

CITY           SKY/WX    TMP DP  RH WIND       PRES   REMARKS
IRON MOUNTAIN  CLOUDY    74  66  76 S8        29.99R
6HR MIN TEMP:  74; 6HR MAX TEMP:  80;

HOUGHTON       CLEAR     58  54  86 E12       29.99F
6HR MIN TEMP:  58; 6HR MAX TEMP:  70;

COPPER HARBOR    N/A     60  57  89 VRB5      30.00S
6HR MIN TEMP:  60; 6HR MAX TEMP:  66;

IRONWOOD       CLEAR     75  66  73 SE5       29.93S
6HR MIN TEMP:  75; 6HR MAX TEMP:  80;

$$

ABBREVIATIONS USED IN REMARKS
   TC - TEMPERATURE IN CELSIUS
  WCI - WIND CHILL INDEX
   HX - HEAT INDEX
  VSB - VISIBILITY




USA.gov is the U.S. government's official web portal to all federal, state and local government web resources and services.